Location: *
(47.6569°N, 7.4256°E)
Time: 18:26:56
(UTC+00:00)

SKYMED 2 - Pass Details

Date: 14 December 2019
Orbit: 621 x 623 km, 97.9° (Epoch: 22 January)

Event Time Altitude Azimuth Distance (km) Brightness Sun altitude
Exits shadow 17:53:32 29° 9° (N) 1,142 4.7 -21.6°
Maximum altitude 17:55:42 82° 286° (WNW) 636 3.6 -22.0°
Drops below altitude 10° 18:00:02 10° 198° (SSW) 1,988 6.5 -22.7°
Sets 18:02:12 0° 198° (SSW) 2,889 7.4 -23.1°
